EW5622 Weather Reports


Display with metric or nautical units.
time (UTC)temp
F
wind
direction
speed
MPH
gust
MPH
rain 1hr
in
rain 24hr
in
rain mn
in
humidity
%
barometer
mb
20260902230003 61 0 0.0 0.0 0.00 0.00 0.00 90 1024.1
20260902225403 61 0 0.0 0.0 0.00 0.00 0.00 89 1023.1
20260902224714 62 0 0.0 0.0 0.00 0.00 0.00 89 1023.1
20260902223603 62 0 0.0 0.0 0.00 0.00 0.00 89 1023.1
20260902222705 62 0 0.0 0.0 0.00 0.00 0.00 88 1023.1
20260902221805 63 0 0.0 0.0 0.00 0.00 0.00 87 1023.1
20260902220903 63 0 0.0 0.0 0.00 0.00 0.00 87 1023.1
20260902220004 64 0 0.0 0.0 0.00 0.00 0.00 86 1023.1
20260902215612 64 0 0.0 0.0 0.00 0.00 0.00 86 1023.1
20260902214505 64 0 0.0 0.0 0.00 0.00 0.00 86 1023.1
20260902213604 65 0 0.0 0.0 0.00 0.00 0.00 85 1023.1
20260902212703 65 0 0.0 0.0 0.00 0.00 0.00 85 1023.1
20260902211803 65 0 0.0 0.0 0.00 0.00 0.00 85 1023.1
20260902210904 65 0 0.0 0.0 0.00 0.00 0.00 84 1023.1
20260902210003 66 0 0.0 0.0 0.00 0.00 0.00 84 1023.1
20260902205405 66 0 0.0 0.0 0.00 0.00 0.00 84 1023.1
20260902204503 66 337 0.0 23.0 0.00 0.00 0.00 83 1023.1
20260902203813 66 0 0.0 0.0 0.00 0.00 0.00 83 1023.1
20260902202705 67 360 0.0 40.0 0.00 0.00 0.00 82 1023.1
20260902201806 67 0 0.0 0.0 0.00 0.00 0.00 82 1023.1
20260902200903 67 0 0.0 0.0 0.00 0.00 0.00 82 1023.1
20260902200003 67 0 0.0 0.0 0.00 0.00 0.00 81 1023.1
20260902195403 67 337 0.0 77.0 0.00 0.00 0.00 81 1022.1
20260902194503 68 337 77.0 77.0 0.00 0.00 0.00 81 1022.1
20260902193603 68 0 0.0 0.0 0.00 0.00 0.00 80 1022.1
20260902192705 68 0 0.0 0.0 0.00 0.00 0.00 79 1022.1
20260902191803 69 360 0.0 2.0 0.00 0.00 0.00 79 1022.1
20260902190903 69 360 2.0 57.0 0.00 0.00 0.00 78 1022.1
20260902190005 69 2 0.0 5.0 0.00 0.00 0.00 78 1022.1
20260902185405 69 15 5.0 21.0 0.00 0.00 0.00 78 1021.1
20260902184715 69 3 0.0 69.0 0.00 0.00 0.00 77 1021.1
20260902183604 70 12 1.0 35.0 0.00 0.00 0.00 76 1021.1
20260902182705 71 3 3.0 40.0 0.00 0.00 0.00 75 1021.1
20260902181804 71 340 36.0 36.0 0.00 0.00 0.00 73 1021.1
20260902180903 71 351 0.0 4.0 0.00 0.00 0.00 72 1021.1
20260902180213 72 357 1.0 42.0 0.00 0.00 0.00 71 1021.1
20260902175615 72 1 0.0 39.0 0.00 0.00 0.00 71 1021.1
20260902174505 72 13 3.0 5.0 0.00 0.00 0.00 70 1021.1
20260902173814 73 330 5.0 31.0 0.00 0.00 0.00 69 1021.1
20260902172705 74 16 0.0 25.0 0.00 0.00 0.00 68 1021.1
20260902172014 74 353 3.0 22.0 0.00 0.00 0.00 68 1021.1
20260902170905 76 333 2.0 54.0 0.00 0.00 0.00 67 1021.1
20260902170005 77 355 25.0 25.0 0.00 0.00 0.00 66 1021.1
20260902165403 77 9 0.0 13.0 0.00 0.00 0.00 65 1021.1
20260902164714 78 1 4.0 4.0 0.00 0.00 0.00 64 1021.1
20260902163603 80 360 3.0 6.0 0.00 0.00 0.00 64 1021.1
20260902162705 80 347 2.0 5.0 0.00 0.00 0.00 63 1021.1
20260902161803 80 6 0.0 7.0 0.00 0.00 0.00 64 1021.1
20260902160904 80 349 7.0 7.0 0.00 0.00 0.00 63 1021.1
20260902160005 81 334 3.0 5.0 0.00 0.00 0.00 61 1021.1
20260902155403 82 358 3.0 8.0 0.00 0.00 0.00 62 1021.1
20260902154504 83 5 1.0 6.0 0.00 0.00 0.00 61 1021.1
20260902153605 83 353 5.0 5.0 0.00 0.00 0.00 61 1021.1
20260902152703 82 11 2.0 5.0 0.00 0.00 0.00 62 1021.1
20260902151805 82 352 3.0 5.0 0.00 0.00 0.00 61 1021.1
20260902150905 83 355 2.0 7.0 0.00 0.00 0.00 62 1021.1
20260902150003 82 359 1.0 6.0 0.00 0.00 0.00 63 1021.1
20260902145403 82 6 4.0 6.0 0.00 0.00 0.00 63 1021.1
20260902144713 82 7 5.0 5.0 0.00 0.00 0.00 64 1021.1
20260902143603 81 333 21.0 21.0 0.00 0.00 0.00 64 1021.1
20260902142705 82 342 3.0 13.0 0.00 0.00 0.00 65 1021.1
20260902141803 82 344 0.0 21.0 0.00 0.00 0.00 65 1021.1
20260902140903 80 337 3.0 4.0 0.00 0.00 0.00 65 1021.1
20260902140003 81 352 4.0 27.0 0.00 0.00 0.00 66 1021.1
20260902135403 81 355 0.0 57.0 0.00 0.00 0.00 65 1021.1
20260902134713 81 352 57.0 57.0 0.00 0.00 0.00 66 1021.1
20260902133603 81 353 22.0 35.0 0.00 0.00 0.00 65 1021.1
20260902132915 80 357 5.0 35.0 0.00 0.00 0.00 66 1021.1
20260902131803 80 336 24.0 32.0 0.00 0.00 0.00 66 1022.1
20260902131114 80 337 28.0 33.0 0.00 0.00 0.00 65 1021.1
20260902130003 80 330 27.0 39.0 0.00 0.00 0.00 65 1021.1
20260902125405 80 323 33.0 39.0 0.00 0.00 0.00 66 1021.1
20260902124503 80 3 2.0 26.0 0.00 0.00 0.00 66 1021.1
20260902123603 80 330 3.0 60.0 0.00 0.00 0.00 66 1021.1
20260902122705 80 334 39.0 69.0 0.00 0.00 0.00 66 1021.1
20260902121803 81 333 1.0 59.0 0.00 0.00 0.00 66 1021.1
20260902120903 81 318 0.0 74.0 0.00 0.00 0.00 67 1021.1
20260902120005 80 305 33.0 50.0 0.00 0.00 0.00 67 1021.1
20260902115403 80 320 21.0 24.0 0.00 0.00 0.00 68 1021.1
20260902114504 80 309 0.0 54.0 0.00 0.00 0.00 69 1021.1
20260902113605 80 289 0.0 39.0 0.00 0.00 0.00 69 1022.1
20260902112703 79 316 0.0 38.0 0.00 0.00 0.00 69 1022.1
20260902111803 79 282 35.0 62.0 0.00 0.00 0.00 69 1022.1
20260902111115 79 19 0.0 74.0 0.00 0.00 0.00 70 1022.1
20260902110005 78 287 11.0 42.0 0.00 0.00 0.00 71 1022.1
20260902105403 79 255 0.0 49.0 0.00 0.00 0.00 72 1022.1
20260902104503 78 281 0.0 46.0 0.00 0.00 0.00 72 1022.1
20260902103603 77 245 1.0 50.0 0.00 0.00 0.00 73 1022.1
20260902102705 77 267 53.0 77.0 0.00 0.00 0.00 73 1022.1
20260902101805 77 286 32.0 39.0 0.00 0.00 0.00 73 1022.1
20260902100905 77 254 0.0 38.0 0.00 0.00 0.00 74 1022.1
20260902100003 79 22 0.0 44.0 0.00 0.00 0.00 73 1022.1
20260902095405 79 14 0.0 44.0 0.00 0.00 0.00 75 1022.1
20260902094715 78 358 0.0 77.0 0.00 0.00 0.00 75 1022.1
20260902093813 77 337 39.0 39.0 0.00 0.00 0.00 78 1022.1
20260902092705 76 0 0.0 0.0 0.00 0.00 0.00 79 1022.1
20260902091803 74 352 0.0 24.0 0.00 0.00 0.00 82 1021.1
20260902090906 73 22 0.0 77.0 0.00 0.00 0.00 86 1021.1
20260902090005 72 13 40.0 78.0 0.00 0.00 0.00 86 1021.1
20260902085403 71 12 78.0 78.0 0.00 0.00 0.00 89 1021.1
20260902084503 70 360 39.0 39.0 0.00 0.00 0.00 91 1021.1
20260902083814 68 0 0.0 0.0 0.00 0.00 0.00 94 1021.1
20260902082914 67 0 0.0 0.0 0.00 0.00 0.00 96 1021.1
20260902081805 66 0 0.0 0.0 0.00 0.00 0.00 98 1021.1
20260902080906 65 0 0.0 0.0 0.00 0.00 0.00 98 1021.1
20260902080003 64 0 0.0 0.0 0.00 0.00 0.00 98 1021.1
20260902075405 63 0 0.0 0.0 0.00 0.00 0.00 98 1021.1
20260902074503 62 0 0.0 0.0 0.00 0.00 0.00 98 1021.1
20260902073814 61 0 0.0 0.0 0.00 0.00 0.00 98 1021.1
20260902072915 60 0 0.0 0.0 0.00 0.00 0.00 98 1021.1
20260902071803 59 0 0.0 0.0 0.00 0.00 0.00 98 1021.1
20260902070903 58 0 0.0 0.0 0.00 0.00 0.00 98 1021.1
20260902070217 57 0 0.0 0.0 0.00 0.00 0.00 98 1021.1
20260902065613 57 0 0.0 0.0 0.00 0.00 0.00 98 1021.1
20260902064714 56 0 0.0 0.0 0.00 0.00 0.00 98 1021.1
20260902063604 55 0 0.0 0.0 0.00 0.00 0.00 98 1021.1
20260902062705 55 0 0.0 0.0 0.00 0.00 0.00 98 1021.1
20260902061805 55 0 0.0 0.0 0.00 0.00 0.00 98 1021.1
20260902060903 55 0 0.0 0.0 0.00 0.00 0.00 98 1021.1
20260902060003 55 0 0.0 0.0 0.00 0.00 0.00 98 1021.1
20260902055403 55 0 0.0 0.0 0.00 0.00 0.00 98 1021.1
20260902054503 55 0 0.0 0.0 0.00 0.00 0.00 98 1021.1
20260902053603 55 0 0.0 0.0 0.00 0.00 0.00 98 1021.1
20260902052703 55 0 0.0 0.0 0.00 0.00 0.00 98 1021.1
20260902051803 55 0 0.0 0.0 0.00 0.00 0.00 98 1021.1
20260902050905 55 0 0.0 0.0 0.00 0.00 0.00 98 1021.1
20260902050006 56 0 0.0 0.0 0.00 0.00 0.00 98 1021.1
20260902045403 56 0 0.0 0.0 0.00 0.00 0.00 98 1021.1
20260902044715 56 0 0.0 0.0 0.00 0.00 0.00 98 1021.1
20260902043603 56 0 0.0 0.0 0.00 0.00 0.00 98 1021.1
20260902042914 56 0 0.0 0.0 0.00 0.00 0.00 98 1021.1
20260902042013 56 0 0.0 0.0 0.00 0.00 0.00 98 1020.1
20260902040904 56 0 0.0 0.0 0.00 0.00 0.00 98 1021.1
20260902040005 56 0 0.0 0.0 0.00 0.00 0.00 98 1021.1
20260902035403 57 0 0.0 0.0 0.00 0.00 0.00 98 1021.1
20260902034503 57 0 0.0 0.0 0.00 0.00 0.00 98 1021.1
20260902033603 57 0 0.0 0.0 0.00 0.00 0.00 98 1021.1
20260902032705 57 0 0.0 0.0 0.00 0.00 0.00 98 1021.1
20260902031803 57 0 0.0 0.0 0.00 0.00 0.00 98 1021.1
20260902030904 58 0 0.0 0.0 0.00 0.00 0.00 98 1021.1
20260902030003 58 0 0.0 0.0 0.00 0.00 0.00 98 1021.1
20260902025403 58 0 0.0 0.0 0.00 0.00 0.00 98 1021.1
20260902024503 58 0 0.0 0.0 0.00 0.00 0.00 98 1021.1
20260902023814 58 0 0.0 0.0 0.00 0.00 0.00 98 1021.1
20260902022703 58 0 0.0 0.0 0.00 0.00 0.00 98 1021.1
20260902021805 58 0 0.0 0.0 0.00 0.00 0.00 98 1020.1
20260902020903 58 0 0.0 0.0 0.00 0.00 0.00 98 1020.1
20260902020003 58 0 0.0 0.0 0.00 0.00 0.00 98 1020.1
20260902015403 58 0 0.0 0.0 0.00 0.00 0.00 98 1020.1
20260902014504 59 0 0.0 0.0 0.00 0.00 0.00 98 1020.1
20260902013603 59 0 0.0 0.0 0.00 0.00 0.00 98 1020.1
20260902012705 59 0 0.0 0.0 0.00 0.00 0.00 97 1020.1
20260902011805 59 0 0.0 0.0 0.00 0.00 0.00 97 1020.1
20260902010909 59 0 0.0 0.0 0.00 0.00 0.00 97 1020.1
20260902010213 60 0 0.0 0.0 0.00 0.00 0.00 96 1020.1
20260902005403 60 0 0.0 0.0 0.00 0.00 0.00 96 1020.1
20260902004503 60 0 0.0 0.0 0.00 0.00 0.00 96 1020.1
20260902003603 60 0 0.0 0.0 0.00 0.00 0.00 96 1021.1
20260902002915 60 0 0.0 0.0 0.00 0.00 0.00 95 1021.1
20260902001803 61 0 0.0 0.0 0.00 0.00 0.00 95 1020.1
20260902000905 61 0 0.0 0.0 0.00 0.00 0.00 94 1020.1
20260902000003 61 0 0.0 0.0 0.00 0.00 0.00 94 1020.1
20260901235614 61 0 0.0 0.0 0.00 0.00 0.00 94 1020.1
20260901234503 62 0 0.0 0.0 0.00 0.00 0.00 93 1020.1
20260901233813 62 0 0.0 0.0 0.00 0.00 0.00 93 1020.1
20260901232703 62 0 0.0 0.0 0.00 0.00 0.00 93 1020.1
20260901231804 62 0 0.0 0.0 0.00 0.00 0.00 92 1020.1
20260901230903 63 0 0.0 0.0 0.00 0.00 0.00 92 1020.1